Miscellaneous Local Product
Issued by NWS Hastings, NE

Home | Current Version | Previous Version | Graphics & Text | Print | Product List | Glossary On
Versions: 1 2 3 4 5 6 7 8 9 10 11 12 13 14 15 16 17 18 19 20 21 22 23 24 25 26 27 28 29 30 31 32 33 34 35 36 37 38 39 40 41 42 43 44 45 46 47 48 49 50
000
AXUS43 KGID 281502
MISGRI

GID CWA HOURLY WEATHER ROUNDUP
NATIONAL WEATHER SERVICE HASTINGS NE
1000 AM CDT MON JUL 28 2014

NOTE: "FAIR" INDICATES FEW OR NO CLOUDS BELOW 12,000 FEET WITH NO
SIGNIFICANT WEATHER AND/OR OBSTRUCTIONS TO VISIBILITY.

...SOUTH CENTRAL NEBRASKA...

CITY           SKY/WX    TMP DP  RH WIND       PRES   REMARKS
GRAND ISLAND   SUNNY     67  55  65 N7        30.34R
HASTINGS       SUNNY     67  54  63 N8        30.34R
KEARNEY        SUNNY     66  54  63 NE8       30.35R
ORD            SUNNY     67  55  65 NE8       30.33R
YORK           MOSUNNY   66  59  77 N9        30.32S
AURORA         SUNNY     68  58  70 N7        30.32S
LEXINGTON      SUNNY     66  58  74 E5        30.36R
HOLDREGE       SUNNY     67  55  66 NE8       30.35S
HEBRON         SUNNY     68  55  62 N9        30.32R

...NEBRASKA PANHANDLE...

CITY           SKY/WX    TMP DP  RH WIND       PRES   REMARKS
CHADRON        MOSUNNY   69  53  56 E5        30.34S
ALLIANCE       SUNNY     71  51  49 SE18      30.35S
SCOTTSBLUFF    SUNNY     67  53  61 E12       30.35S
SIDNEY         SUNNY     72  50  45 E8        30.36R

...WESTERN AND NORTH CENTRAL NEBRASKA...

CITY           SKY/WX    TMP DP  RH WIND       PRES   REMARKS
VALENTINE      SUNNY     68  54  60 VRB5      30.35F
AINSWORTH      SUNNY     64  54  69 NE3       30.36S
ONEILL         SUNNY     66  54  64 N9        30.34S
BROKEN BOW     SUNNY     68  55  63 VRB3      30.35R
IMPERIAL       SUNNY     69  57  65 SE16      30.35R
NORTH PLATTE   SUNNY     67  57  70 SE7       30.35S
MCCOOK         MOSUNNY   70  58  65 SE12      30.36R

...EASTERN NEBRASKA...

CITY           SKY/WX    TMP DP  RH WIND       PRES   REMARKS
NORFOLK        MOSUNNY   68  55  63 N12       30.31R
SO SIOUX CITY  PTSUNNY   69  58  67 N13G18    30.27R
ALBION         SUNNY     64  56  74 N9        30.33R
OMAHA EPPLEY   PTSUNNY   66  56  70 N7        30.27S
OFFUTT AFB     CLOUDY    66  60  80 NW7       30.26R
MILLARD        PTSUNNY   67  57  69 N6        30.26S
LINCOLN        MOSUNNY   71  54  54 N14       30.29F
NEBRASKA CITY  CLOUDY    66  57  74 N7        30.27S
BEATRICE       SUNNY     68  56  66 N13G20    30.29R
FALLS CITY     SUNNY     69  59  70 N9        30.25R

...NORTHERN KANSAS...

CITY           SKY/WX    TMP DP  RH WIND       PRES   REMARKS
GOODLAND       MOSUNNY   74  57  55 S10       30.35S
HILL CITY      SUNNY     71  58  63 SE9       30.36R
NORTON         SUNNY     72  54  53 SE9       30.35R
PHILLIPSBURG   SUNNY     70  55  60 E7        30.35R
SMITH CENTER   SUNNY     70  54  56 NE7       30.35R
HAYS           SUNNY     72  55  56 SE12      30.36R
RUSSELL        SUNNY     71  56  58 E6        30.34R
CONCORDIA      MOSUNNY   70  57  63 NE8       30.31R
SALINA         SUNNY     73  55  53 N7        30.31R
TOPEKA         SUNNY     73  57  57 N7        30.25R



USA.gov is the U.S. government's official web portal to all federal, state and local government web resources and services.